Regional Weather Roundup
Issued by NWS

Home | Current Version | Previous Version | Text Only | Print | Product List | Glossary On
Versions: 1 2 3 4 5 6 7 8 9 10 11 12 13 14 15 16 17 18 19 20 21 22 23 24 25 26 27 28 29 30 31 32 33 34 35 36 37 38 39 40 41 42 43 44 45 46 47 48 49 50
000
ASUS43 KMPX 240710
RWRMN
WEATHER ROUNDUP FOR MINNESOTA
NATIONAL WEATHER SERVICE TWIN CITIES/CHANHASSEN MN
200 AM CDT SUN JUL 24 2016


NOTE: "FAIR" INDICATES FEW OR NO CLOUDS BELOW 12,000 FEET WITH NO
SIGNIFICANT WEATHER AND/OR OBSTRUCTIONS TO VISIBILITY. N/A MEANS
CURRENT SKY AND/OR WEATHER CONDITIONS ARE NOT AVAILABLE.

MNZ060>063-068>070-240800-
   Twin Cities Metro

CITY           SKY/WX    TMP DP  RH WIND       PRES   REMARKS
TWIN CITIES    CLOUDY    76  72  87 S7        29.76F
ST PAUL        CLOUDY    74  72  93 SE6       29.76F
CRYSTAL        CLOUDY    74  69  85 S8        29.74F
BLAINE         MOCLDY    75  73  94 S13       29.75F
LAKEVILLE      CLOUDY    73  73 100 S7        29.77F
EDEN PRAIRIE   CLOUDY    76  73  91 S6        29.76S
LAKEVILLE      CLOUDY    73  73 100 S7        29.77F
SOUTH ST PAUL  CLOUDY    74  72  93 S5        29.76F
LAKE ELMO      CLOUDY    73  72  94 S7        29.78F
$$
MNZ001>005-007-008-013>017-022>024-027-028-240800-
   Northwest Minnesota

CITY           SKY/WX    TMP DP  RH WIND       PRES   REMARKS
BEMIDJI        CLEAR     70  66  88 W7        29.75F
HALLOCK        CLEAR     66  63  88 W8        29.71R
ROSEAU         CLEAR     70  63  78 W7        29.70R
WARROAD        CLEAR     68  64  88 SW6       29.70S
THIEF RVR FALL CLEAR     68  66  93 W10       29.75S
CROOKSTON      CLEAR     68  64  88 W10       29.75F
FOSSTON        CLEAR     64  64 100 SW6       29.76F
DETROIT LAKES  CLEAR     68  66  94 W5        29.81S
MOORHEAD       CLEAR     70  68  94 W8        29.80S
PARK RAPIDS    CLEAR     66  63  90 NW6       29.77S
MAHNOMEN       FAIR      65  65  98 SW7       29.77S
$$
MNZ006-009>011-018-025>026-240800-
   North Central Minnesota

CITY           SKY/WX    TMP DP  RH WIND       PRES   REMARKS
BAUDETTE       CLOUDY    71  69  93 SW5       29.70S
FLAG ISLAND    CLOUDY    70  66  88 CALM      29.66F
INTL FALLS     CLOUDY    70  65  84 VRB7      29.69F
WASKISH        CLOUDY    73  70  88 SW8       29.72S
BIG FORK       CLOUDY    70  66  88 S5        29.74F
LONGVILLE      CLOUDY    70  68  94 S3        29.76R
GRAND RAPIDS   CLOUDY    66  66 100 N5        29.76R FOG
CRANE LAKE     CLOUDY    66  63  88 S3        29.75F
ORR            CLOUDY    66  63  88 CALM      29.73S
COOK           LGT RAIN  64  64 100 CALM      29.76R
WALKER         FAIR      67  66  96 W6        29.76R
$$
MNZ012-019>021-037-240800-
   Northeast Minnesota

CITY           SKY/WX    TMP DP  RH WIND       PRES   REMARKS
DULUTH         TSTM      62  61  96 SE7       29.79F FOG
ELY            MOCLDY    64  59  82 SE7       29.76F
HIBBING        RAIN      64  64 100 VRB5      29.78R FOG
EVELETH        CLOUDY    65  62  90 SE6       29.78R
DULUTH HARBOR  CLOUDY    63  61  94 N6        29.79S FOG
TWO HARBORS    CLOUDY    66  63  88 CALM      29.77F
SILVER BAY     CLOUDY    64  61  88 CALM      29.77F
GRAND MARAIS     N/A     61  57  87 E5        29.77F
G MARAIS ARPRT PTCLDY    61  57  88 CALM      29.82F
$$
MNZ029>031-032-039>041-046>048-054>057-064-240800-
   West Central Minnesota

CITY           SKY/WX    TMP DP  RH WIND       PRES   REMARKS
FERGUS FALLS   CLEAR     70  70 100 W6        29.82S
WHEATON        CLEAR     72  70  94 W5        29.84S
MORRIS         CLEAR     66  66 100 CALM      29.81S
ALEXANDRIA     CLOUDY    69  67  93 W7        29.81S
ELBOW LAKE     FAIR      69  68  96 NW7       29.81S
WADENA         CLEAR     68  66  94 W6        29.78S
GLENWOOD       CLOUDY    72  68  88 NW10      29.80S
APPLETON       CLEAR     73  70  88 NW8       29.81R
BENSON         CLEAR     68  63  83 N6        29.80S
ORTONVILLE     PTCLDY    73  70  88 NW9       29.83R
MADISON        PTCLDY    73  70  88 W8        29.83R
WILLMAR        FAIR      70  66  88 CALM      29.80R
$$
MNZ033>034-036-042>043-049>051-058-059-240800-
   Central Minnesota

CITY           SKY/WX    TMP DP  RH WIND       PRES   REMARKS
ST CLOUD       CLOUDY    74  74 100 SW7       29.76R
SAUK CENTRE    FAIR      70  67  90 W3        29.79S
PAYNESVILLE    CLOUDY    68  66  94 W7        29.79R
AITKIN         CLOUDY    70  63  78 S5        29.75F
PINE RIVER     CLOUDY    66  66 100 S3        29.81R
BRAINERD       CLOUDY    66  66 100 CALM      29.77R
STAPLES        CLOUDY    68  66  94 W6        29.78R
LONG PRAIRIE   FAIR      72  68  88 SW7       29.78S
LITTLE FALLS   CLOUDY    72  70  94 CALM      29.77F
LITCHFIELD     CLOUDY    68  68 100 SE6       29.77F
BUFFALO        CLOUDY    74  71  88 S7        29.78R
MAPLE LAKE     TSTM      75  73  96 S9        29.78R
HUTCHINSON     TSTM      70  69  96 N8G28     29.79R
$$
MNZ037-044-045-052-053-240800-
   East Central Minnesota

CITY           SKY/WX    TMP DP  RH WIND       PRES   REMARKS
PRINCETON      CLOUDY    73  72  94 SE8       29.74F
MORA           CLOUDY    70  68  94 NW18G25   29.83R
CAMBRIDGE      CLOUDY    73  66  78 SE5       29.73S
RUSH CITY      CLOUDY    71  68  92 SE5       29.75F
MOOSE LAKE     RAIN      64  63  94 NW10G18   29.80R
HINCKLEY       LGT RAIN  72  70  94 CALM      29.77R
CLOQUET        TSTM      63  61  94 CALM      29.78F
MCGREGOR       CLOUDY    68  64  88 E3        29.74F THUNDER
$$
MNZ071>073-080-081-089-090-097-098-240800-
   Southwest Minnesota

CITY           SKY/WX    TMP DP  RH WIND       PRES   REMARKS
MONTEVIDEO     CLEAR     73  72  94 N8        29.82R
GRANITE FALLS  CLEAR     77  74  91 W10       29.82R
CANBY          PTCLDY    74  69  85 NW8       29.86R
MARSHALL       MOCLDY    77  70  79 NW14      29.83R
REDWOOD FALLS  PTCLDY    79  76  90 NW10      29.76F
OLIVIA         PTCLDY    77  73  88 CALM      29.76F
PIPESTONE      MOCLDY    77  70  78 N13G18    29.88R
WINDOM         PTCLDY    79  75  89 W14       29.82R
WORTHINGTON    CLEAR     78  75  90 NW16G22   29.86R
JACKSON        PTCLDY    79  73  83 W8        29.83R
TRACY          PTCLDY    78  72  81 NW12G17   29.84R
SLAYTON        CLOUDY    77  72  85 NW15G24   29.87R
$$
MNZ065>067-074>077-082>085-091>093-240800-
   South Central Minnesota

CITY           SKY/WX    TMP DP  RH WIND       PRES   REMARKS
MANKATO        PTCLDY    75  72  88 S8        29.77F
NEW ULM        PTCLDY    75  73  94 S8        29.77F
ST JAMES       PTCLDY    72  72 100 CALM      29.79R
FAIRMONT       CLEAR     77  54  44 SW6       29.78S
GLENCOE        CLOUDY    75  74  99 CALM      29.77S
FARIBAULT      CLOUDY    75  73  94 S7        29.78F
OWATONNA       CLOUDY    75  72  88 S7        29.79F FOG
WASECA         CLOUDY    73  72  94 SE3       29.80F FOG
ALBERT LEA     FOG       75  73  94 CALM      29.81S VSB 1/2
$$
MNZ078>079-086>088-094>096-240800-
   Southeast Minnesota

CITY           SKY/WX    TMP DP  RH WIND       PRES   REMARKS
ROCHESTER      PTCLDY    72  71  97 S8        29.82S
RED WING       CLOUDY    75  72  88 CALM      29.77F
STANTON        CLOUDY    75  72  88 S5        29.77F
DODGE CENTER   CLOUDY    73  72  94 S7        29.82S FOG
WINONA         CLOUDY    73  70  88 SE5       29.81F
AUSTIN         PTCLDY    73  70  88 S3        29.82S
PRESTON        CLOUDY    71  69  94 S9        29.84F FOG
$$
ABBREVIATIONS USED IN REMARKS
   TC - TEMPERATURES IN CELSIUS
  WCI - WIND CHILL INDEX
   HX - HEAT INDEX
  VSB - VISIBILITY
$$




USA.gov is the U.S. government's official web portal to all federal, state and local government web resources and services.